User: anonymous   Login
Location: Bijele Vode
(45.2833°N, 16.2000°E)
Time: 03:05:41
(UTC+00:00)
Language:

UNISAT 6 - Orbit

View from above orbital plane
View from above orbital plane
View from above satellite
View from above satellite

Ground track
Ground track

The orbit data is extracted from the following two-line orbital elements,

1 40012U 14033C   21332.80597530  .00000420  00000-0  68697-4 0  9992
2 40012  97.6633 166.5157 0059337  88.6432 272.1574 14.74449437400416
Epoch (UTC): 28 November 2021 19:20:36
Eccentricity: 0.0059337
inclination: 97.6633°
perigee height: 605 km
apogee height: 688 km
right ascension of ascending node: 166.5157°
argument of perigee: 88.6432°
revolutions per day: 14.74449437
mean anomaly at epoch: 272.1574°
orbit number at epoch: 40041

The dashed part of the orbit path shows where the satellite is in the earth's shadow,  

DLR